Weather History for Alexandria, MN

Change the Weather History Date:

Sunday, October 6, 2013

  Actual Average Record
Temperature  
Mean Temperature 51 °F -  
Max Temperature 57 °F 58 °F 86 °F (1993)
Min Temperature 45 °F 37 °F 21 °F (2001)
Degree Days  
Heating Degree Days 14    
Growing Degree Days 1 (Base 50)    
Moisture  
Dew Point 44 °F    
Average Humidity 87    
Maximum Humidity 100    
Minimum Humidity 57    
Precipitation  
Precipitation 0.06 in - - ()
Sea Level Pressure  
Sea Level Pressure 29.81 in    
Wind  
Wind Speed 10 mph (NNW)    
Max Wind Speed 18 mph    
Max Gust Speed 25 mph    
Visibility 8 miles    
Events Rain    
Averages and records for this station are not official NWS values.
T = Trace of Precipitation, MM = Missing Value Source: NWS Daily Summary

Daily Weather History Graph

Daily Weather History Graph

Search for Another Location

Airport:

Trip Planner

Search our weather history database for the weather conditions in past years. The results will help you decide how hot, cold, wet, or windy it might be!

Date:

Astronomy

Oct. 06, 2013 Rise Set
Actual Time 7:26 AM CDT 6:51 PM CDT
Civil Twilight 6:56 AM CDT 7:21 PM CDT
Nautical Twilight 6:22 AM CDT 7:55 PM CDT
Astronomical Twilight 5:47 AM CDT 8:30 PM CDT
Moon 9:19 AM CDT (10/6) 7:43 PM CDT (10/6)
Length of Visible Light 12h 24m
Length of Day
11h 24m
Waxing Crescent, 3% of the Moon is Illuminated
Oct 6
Waxing Crescent
Oct 11
First Quarter
Oct 18
Full
Oct 26
Last Quarter
Nov 3
New

Hourly Weather History & Observations

Time (CDT) Temp. Windchill Dew Point Humidity Pressure Visibility Wind Dir Wind Speed Gust Speed Precip Events Conditions
12:53 AM 48.9 °F - 48.0 °F 97% 29.79 in 10.0 mi NNE 8.1 mph - 0.01 in   Overcast
1:53 AM 48.9 °F - 48.0 °F 97% 29.78 in 8.0 mi NNE 6.9 mph - N/A   Overcast
2:14 AM 48.2 °F - 48.2 °F 100% 29.76 in 10.0 mi NNE 6.9 mph - N/A   Overcast
2:44 AM 48.2 °F - 48.2 °F 100% 29.76 in 2.5 mi North 8.1 mph - N/A   Overcast
2:53 AM 48.9 °F - 46.9 °F 93% 29.77 in 3.0 mi North 8.1 mph - N/A   Overcast
3:21 AM 48.2 °F - 46.4 °F 93% 29.75 in 9.0 mi North 5.8 mph - 0.01 in   Overcast
3:37 AM 48.2 °F - 46.4 °F 93% 29.74 in 4.0 mi North 9.2 mph - 0.01 in   Overcast
3:53 AM 48.0 °F - 46.9 °F 96% 29.76 in 4.0 mi NNW 8.1 mph - 0.01 in   Overcast
4:02 AM 48.2 °F - 46.4 °F 93% 29.74 in 7.0 mi North 8.1 mph - N/A   Overcast
4:14 AM 48.2 °F - 46.4 °F 93% 29.74 in 5.0 mi North 5.8 mph - N/A   Overcast
4:53 AM 48.0 °F - 46.0 °F 93% 29.76 in 10.0 mi North 6.9 mph - N/A   Overcast
5:53 AM 48.0 °F - 46.0 °F 93% 29.77 in 10.0 mi North 10.4 mph - N/A   Overcast
6:53 AM 46.0 °F 39.9 °F 45.0 °F 96% 29.79 in 3.0 mi North 13.8 mph 18.4 mph 0.00 in   Overcast
7:20 AM 46.4 °F 41.1 °F 44.6 °F 93% 29.76 in 4.0 mi North 11.5 mph - 0.01 in Rain Light Rain
7:28 AM 46.4 °F 39.8 °F 44.6 °F 93% 29.76 in 4.0 mi North 16.1 mph 23.0 mph 0.01 in Rain Light Rain
7:53 AM 46.0 °F 40.2 °F 44.1 °F 93% 29.80 in 9.0 mi North 12.7 mph 20.7 mph 0.01 in   Overcast
8:16 AM 46.4 °F 41.5 °F 44.6 °F 93% 29.78 in 2.5 mi North 10.4 mph 18.4 mph 0.01 in Rain Light Rain
8:30 AM 46.4 °F 39.2 °F 44.6 °F 93% 29.78 in 5.0 mi North 18.4 mph 23.0 mph 0.01 in   Overcast
8:36 AM 46.4 °F 40.4 °F 44.6 °F 93% 29.78 in 5.0 mi North 13.8 mph 23.0 mph 0.01 in Rain Light Rain
8:53 AM 46.9 °F - 44.1 °F 90% 29.80 in 8.0 mi North 12.7 mph - 0.02 in   Overcast
9:00 AM 46.4 °F 41.1 °F 44.6 °F 93% 29.78 in 9.0 mi North 11.5 mph - N/A   Overcast
9:07 AM 46.4 °F 41.1 °F 46.4 °F 100% 29.78 in 10.0 mi NNW 11.5 mph - N/A   Overcast
9:53 AM 46.9 °F - 46.0 °F 97% 29.82 in 10.0 mi North 13.8 mph 19.6 mph 0.00 in Rain Light Rain
10:04 AM 46.4 °F 40.1 °F 44.6 °F 93% 29.79 in 8.0 mi North 15.0 mph 19.6 mph 0.00 in Rain Light Rain
10:53 AM 46.9 °F - 44.1 °F 90% 29.83 in 10.0 mi North 10.4 mph 24.2 mph 0.01 in   Overcast
11:17 AM 46.4 °F 40.4 °F 44.6 °F 93% 29.81 in 10.0 mi North 13.8 mph 18.4 mph N/A   Overcast
11:25 AM 46.4 °F 39.2 °F 42.8 °F 87% 29.81 in 10.0 mi North 18.4 mph 23.0 mph N/A   Overcast
11:53 AM 46.9 °F - 43.0 °F 86% 29.84 in 10.0 mi North 16.1 mph 23.0 mph N/A   Overcast
12:53 PM 48.0 °F - 43.0 °F 83% 29.85 in 10.0 mi North 13.8 mph 20.7 mph N/A   Overcast
1:53 PM 48.9 °F - 45.0 °F 86% 29.84 in 10.0 mi NNW 12.7 mph - N/A   Overcast
2:46 PM 51.8 °F - 44.6 °F 76% 29.81 in 10.0 mi North 16.1 mph 24.2 mph N/A   Overcast
2:53 PM 52.0 °F - 45.0 °F 77% 29.83 in 10.0 mi NNW 15.0 mph 24.2 mph N/A   Overcast
3:31 PM 55.4 °F - 44.6 °F 67% 29.81 in 10.0 mi North 15.0 mph 25.3 mph N/A   Scattered Clouds
3:53 PM 57.0 °F - 43.0 °F 59% 29.83 in 10.0 mi NNW 13.8 mph - N/A   Clear
4:53 PM 55.9 °F - 43.0 °F 62% 29.85 in 10.0 mi NNW 15.0 mph - N/A   Clear
5:53 PM 55.0 °F - 39.9 °F 57% 29.88 in 10.0 mi NNW 11.5 mph 20.7 mph N/A   Clear
6:53 PM 51.1 °F - 39.9 °F 66% 29.89 in 10.0 mi WNW 6.9 mph - N/A   Clear
7:53 PM 48.0 °F - 39.9 °F 74% 29.91 in 10.0 mi WNW 5.8 mph - N/A   Clear
8:53 PM 48.0 °F - 39.9 °F 74% 29.91 in 10.0 mi WNW 5.8 mph - N/A   Clear
9:53 PM 46.0 °F 43.1 °F 39.0 °F 76% 29.91 in 10.0 mi West 5.8 mph - N/A   Clear
10:53 PM 45.0 °F 41.8 °F 39.0 °F 80% 29.91 in 10.0 mi WSW 5.8 mph - N/A   Scattered Clouds
11:53 PM 46.0 °F 43.1 °F 41.0 °F 83% 29.89 in 10.0 mi WSW 5.8 mph - N/A   Mostly Cloudy